Theta_e
362 362 365 364 365 369 362 360 359 360 361 359 359 358 354 351 351 349 348 343 341 339 335 336 331 335 329 329 328 329 328 327 321 324 329 332 335 341 339 340 342 342 341
360 363 364 364 364 360 359 355 360 360 361 359 357 354 350 349 349 344 340 340 336 330 331 331 327 327 326 326 327 327 329 327 326 323 326 328 332 330 331 331 330 332 332
359 360 363 363 361 360 358 354 359 360 357 356 355 352 348 343 342 341 339 335 332 331 331 326 325 323 320 320 325 322 321 323 326 324 322 326 327 326 325 328 325 329 327
360 360 361 362 361 360 356 355 357 357 356 354 352 348 343 340 339 335 333 332 332 330 327 324 324 321 319 319 321 321 320 318 319 317 319 320 321 321 323 319 319 322 322
362 355 364 362 364 362 353 352 350 349 352 351 345 341 339 328 325 331 332 331 331 328 328 325 323 322 318 319 318 320 320 316 314 314 315 315 316 315 314 316 316 319 320
361 363 365 364 364 356 347 345 343 342 342 345 340 337 327 316 320 325 331 328 328 327 326 326 322 320 323 322 322 320 317 317 316 313 313 313 314 315 315 315 315 314 313
365 360 358 356 354 350 346 345 341 340 340 336 334 328 322 320 320 324 330 327 325 326 327 325 319 318 319 321 324 327 322 318 318 317 316 316 316 318 318 315 314 315 315
359 356 355 353 349 347 345 343 341 339 337 334 331 328 322 318 318 321 322 328 327 327 326 326 325 324 316 316 318 320 322 322 321 317 319 319 320 321 321 318 316 319 317
355 353 353 350 347 345 341 339 339 338 336 333 330 326 321 320 315 317 318 328 325 325 325 325 324 324 312 311 316 316 317 319 323 322 322 322 323 322 320 317 314 313 311
353 353 351 350 345 343 340 340 341 338 334 330 328 325 321 321 314 315 316 322 327 324 327 327 322 322 313 311 314 315 312 315 319 316 316 319 322 322 323 319 317 312 311
352 354 350 350 347 342 341 342 340 336 333 330 327 325 324 323 319 316 314 324 318 320 320 323 322 317 313 312 312 313 314 318 316 315 316 319 321 320 323 321 321 319 313
353 352 349 348 344 342 341 339 338 332 329 328 324 322 324 324 319 312 314 312 314 321 321 321 323 315 313 311 312 314 315 316 314 314 317 319 318 318 320 321 320 320 320
349 349 348 345 341 341 339 336 331 330 325 323 321 321 321 322 322 314 313 313 313 315 322 318 314 311 310 313 314 314 316 315 315 315 318 318 321 321 324 322 323 325 327
347 349 343 342 338 337 337 336 331 327 324 322 321 320 321 321 322 318 315 316 314 314 319 320 318 315 315 316 316 318 320 320 320 320 317 318 317 315 314 317 316 317 315
345 343 342 338 337 336 338 330 330 319 323 323 322 324 324 322 313 312 317 322 320 313 309 317 317 318 320 323 323 324 325 321 318 318 314 312 312 315 315 316 316 315 311
340 340 337 336 339 336 327 318 305 306 304 302 303 314 314 308 305 303 302 301 301 302 314 314 314 317 320 322 321 319 318 317 316 313 313 313 312 311 310 312 313 312 311
338 339 337 336 336 332 327 324 318 313 306 303 301 302 305 304 302 300 300 299 299 303 312 311 315 319 322 320 317 314 312 314 316 312 312 309 310 311 311 311 311 310 310
339 325 336 336 335 329 326 324 320 319 314 317 306 308 303 301 300 299 299 303 314 307 313 314 316 324 323 318 314 312 312 312 311 311 309 311 312 310 309 309 309 307 306
338 335 333 334 328 325 324 323 319 318 318 317 318 306 305 300 298 299 300 312 314 315 319 315 321 322 318 315 314 315 314 310 309 310 309 307 306 305 305 306 308 304 305
333 328 328 325 321 322 323 320 320 321 324 324 319 320 319 314 316 316 315 316 317 317 321 322 317 322 318 316 315 313 309 308 308 307 306 304 303 302 301 302 304 305 306
328 327 322 319 321 323 321 319 323 321 320 320 321 324 314 320 320 323 321 324 322 323 324 326 322 320 316 313 312 308 307 306 306 305 302 301 301 300 300 300 300 303 304
326 324 324 323 322 323 323 324 323 320 320 320 322 315 305 320 320 322 321 322 319 320 321 325 319 316 313 311 310 308 307 306 306 303 301 299 299 299 299 298 300 302 304
325 325 323 324 324 320 321 322 321 321 320 321 321 319 318 317 322 320 322 320 320 320 324 321 318 314 314 314 313 312 309 304 303 302 299 298 298 297 298 298 300 303 305
326 323 321 322 323 321 322 321 323 313 318 319 320 319 318 318 321 322 322 325 321 323 323 321 317 314 315 314 313 311 304 300 302 300 299 297 296 297 297 298 300 304 306
324 322 321 321 321 320 321 321 322 322 322 321 322 323 322 324 323 325 326 327 326 324 322 320 318 317 315 314 313 307 293 286 296 290 296 297 296 297 298 300 303 306 307
323 322 321 322 322 323 322 322 321 323 321 322 322 321 324 323 323 325 326 327 324 324 322 320 317 318 315 312 305 294 287 286 291 285 290 294 296 299 302 304 305 306 307
Wind_Speed
15 13 11 10 9 5 7 6 9 11 9 8 7 3 8 7 7 6 5 6 6 7 7 6 7 6 7 6 7 5 4 5 6 7 5 6 7 6 9 7 6 6 5
13 11 11 10 10 9 9 8 9 9 9 8 7 8 8 6 5 6 6 6 7 7 5 8 9 7 9 8 7 8 6 5 4 6 5 5 6 8 8 9 9 10 11
13 13 12 10 9 9 10 10 10 10 9 9 10 8 8 7 5 6 6 6 6 5 7 7 6 8 8 7 6 7 7 7 6 3 4 3 3 8 7 6 10 7 10
12 10 8 11 10 9 10 10 10 11 10 8 9 9 7 7 6 6 5 5 6 5 9 7 6 6 5 7 6 6 6 7 7 7 6 6 7 10 7 8 8 6 7
11 7 10 8 8 6 6 8 10 9 6 8 8 8 8 7 6 5 5 5 6 5 5 6 5 4 2 4 3 4 5 5 6 7 7 7 7 8 8 7 7 7 7
10 10 10 8 7 10 13 14 13 7 1 6 7 8 9 8 5 5 4 6 6 6 4 6 6 11 9 5 8 5 2 4 4 4 5 6 6 5 6 7 6 6 7
10 9 9 9 9 10 12 11 10 9 4 6 8 9 9 6 6 9 6 5 6 5 5 5 6 6 7 7 12 10 4 6 6 3 3 4 5 4 4 5 6 6 7
10 9 9 10 10 9 11 10 9 7 7 6 7 8 7 6 8 10 10 6 5 4 3 3 3 4 4 5 7 9 8 7 2 5 5 6 6 4 4 4 7 6 6
9 10 10 10 11 10 10 11 8 8 7 7 7 7 8 6 6 7 7 4 5 4 3 3 2 1 4 3 4 6 7 9 5 9 12 17 18 17 10 3 4 5 6
10 11 11 11 11 9 10 10 8 8 7 7 8 8 8 6 3 3 6 5 5 4 7 8 9 1 4 4 3 4 7 8 7 10 12 13 14 11 15 8 6 3 4
10 11 11 11 11 10 9 9 8 8 8 8 8 7 7 6 4 1 6 3 5 5 6 4 4 7 9 9 10 6 8 5 10 10 10 10 2 3 3 7 9 4 3
12 12 12 11 8 8 10 9 8 8 8 7 7 6 6 5 6 3 1 2 2 2 3 4 2 10 11 11 9 15 15 10 7 9 10 5 4 4 3 2 6 7 7
12 12 12 10 11 9 9 9 7 7 7 7 6 6 7 6 5 7 8 9 9 2 4 8 13 16 16 12 15 18 12 6 7 8 9 5 4 4 5 5 6 7 7
12 13 13 12 11 9 8 6 7 7 7 7 6 6 7 8 8 7 6 5 7 4 7 6 9 14 16 12 7 7 6 7 7 5 5 4 5 7 6 5 6 4 3
13 11 11 11 10 10 7 2 7 3 4 6 6 5 5 5 4 6 5 3 1 2 5 4 6 7 6 6 6 6 3 4 4 4 5 7 7 5 5 6 6 5 5
10 9 8 9 9 7 7 5 14 8 11 12 10 9 7 11 9 8 6 1 2 4 3 5 7 8 7 6 5 4 4 5 4 5 6 6 6 7 8 8 7 6 5
10 10 8 8 6 5 6 6 5 4 8 8 8 10 9 7 6 4 4 5 2 6 4 6 7 5 5 5 5 5 6 5 5 6 6 8 8 8 8 7 6 6 6
8 8 5 6 4 5 5 6 6 5 4 3 2 4 7 8 7 7 3 2 6 3 5 7 8 4 3 4 5 6 5 6 6 6 7 7 7 8 9 8 8 7 8
8 5 5 4 5 5 6 5 7 6 7 7 7 5 8 9 3 3 5 4 6 7 6 4 8 5 5 5 4 4 5 5 6 6 7 7 8 9 10 10 9 8 8
10 13 8 6 5 4 4 5 4 6 4 2 5 8 8 5 5 7 7 6 6 7 6 4 4 3 4 4 4 4 5 6 5 5 5 7 8 8 9 10 10 10 9
5 4 10 7 5 6 5 6 5 5 6 8 7 4 14 9 8 1 5 3 5 5 4 1 3 3 4 4 4 5 6 6 6 5 6 7 9 9 9 9 10 10 10
5 5 7 8 7 7 6 4 4 6 6 6 5 7 14 4 5 3 2 3 4 1 2 3 3 4 3 3 4 5 6 7 5 6 6 7 7 8 8 9 9 10 10
8 9 8 7 6 6 3 5 6 5 6 5 4 8 6 4 1 5 5 4 1 5 3 3 3 3 3 3 3 4 4 5 5 5 7 7 8 8 9 9 10 10 10
9 9 8 6 5 6 6 5 5 1 3 5 3 5 5 3 4 2 2 1 3 0 3 2 3 3 1 2 2 3 4 2 3 4 7 7 8 9 9 10 10 12 10
6 6 6 7 7 6 6 7 7 5 6 5 3 1 4 2 1 0 1 2 2 2 2 2 1 2 3 4 4 8 4 1 3 4 5 8 10 12 11 9 11 10 13
6 7 7 7 7 6 6 5 5 5 5 3 3 2 4 4 1 2 3 3 1 1 3 1 1 3 4 4 6 5 4 2 5 4 5 7 8 9 9 11 15 10 11
Wind_Direction
171 174 172 182 173 173 159 139 133 130 139 106 105 105 83 77 64 45 16 56 42 40 30 15 26 1 359 10 344 8 354 11 342 333 313 321 318 11 18 350 336 304 311
169 176 169 175 161 174 169 154 144 132 114 123 133 100 95 80 74 62 52 38 58 46 18 43 31 16 9 8 336 3 22 347 319 334 318 321 40 24 1 357 0 351 344
167 179 170 170 163 188 168 161 156 135 125 128 119 109 87 74 72 87 69 59 70 57 58 50 40 27 20 352 355 358 5 335 315 319 316 1 359 24 7 2 354 339 350
164 174 171 162 173 197 171 166 138 128 128 125 112 108 109 104 76 72 75 75 69 67 90 68 58 56 31 357 29 11 354 349 359 353 338 352 13 3 355 1 347 354 342
151 151 172 186 182 202 141 133 123 100 111 117 113 121 115 86 67 21 91 74 83 80 89 120 68 69 45 0 3 352 360 6 9 354 2 1 11 350 357 349 336 334 332
157 178 166 162 126 88 83 84 82 84 227 124 108 82 73 84 78 50 100 102 77 58 43 105 117 43 19 287 303 288 298 340 16 360 4 349 351 349 342 336 325 345 341
164 125 117 118 117 117 114 118 124 121 124 90 89 88 87 108 73 31 90 109 108 106 76 33 48 53 28 5 347 355 222 240 271 321 346 313 308 315 311 320 315 304 294
133 138 139 138 131 126 121 118 116 129 118 114 109 105 114 98 56 33 7 93 83 71 71 90 87 98 51 17 347 345 342 327 7 326 287 274 278 292 267 291 305 310 313
143 156 159 154 141 141 132 128 144 142 138 123 116 126 115 113 67 32 353 149 142 170 187 204 213 132 126 38 345 331 317 307 334 332 290 284 279 258 239 316 291 327 328
161 150 152 151 141 148 141 150 153 140 147 134 137 116 117 126 101 18 4 315 200 203 198 217 213 316 166 211 259 277 291 284 325 317 308 299 290 248 235 215 256 297 318
153 148 155 150 147 142 157 142 148 153 142 132 126 127 135 145 161 203 28 353 23 351 353 15 141 195 234 243 246 262 254 297 306 296 291 279 337 320 229 194 224 230 267
146 142 140 140 141 145 142 144 151 133 128 130 133 158 151 151 161 197 118 73 360 314 311 318 89 227 257 262 266 264 260 266 270 278 282 292 299 270 268 237 255 263 240
143 150 148 151 138 139 148 147 136 143 149 151 170 187 157 170 164 187 205 226 237 252 283 317 295 290 289 284 259 257 255 243 245 263 277 304 313 334 307 287 266 253 246
157 146 135 137 136 146 148 163 158 172 169 171 186 210 172 176 183 183 208 224 244 250 259 289 294 280 272 257 280 278 248 225 234 260 314 330 329 321 307 290 287 276 279
136 136 141 141 152 165 156 172 167 34 181 182 194 213 176 157 86 98 129 117 92 114 306 295 293 293 295 297 303 301 354 0 336 359 332 316 304 305 317 310 311 313 292
140 142 142 154 168 160 135 98 43 86 82 79 55 90 56 95 109 91 85 99 254 43 278 291 293 287 290 307 297 347 353 358 359 323 318 323 327 329 311 301 291 294 311
149 153 168 167 167 143 147 143 125 72 72 85 100 97 109 144 148 190 239 332 257 152 243 268 270 284 295 308 358 353 352 348 338 328 333 331 307 302 304 312 313 310 315
132 126 138 148 157 146 168 156 164 153 164 176 257 219 200 207 219 246 108 353 296 198 255 267 252 265 324 2 359 354 343 343 328 333 315 312 328 336 329 328 330 342 333
123 139 172 170 163 160 152 182 140 158 185 189 177 212 223 232 235 93 137 244 273 297 305 340 320 349 7 359 348 344 346 329 325 326 333 347 347 342 333 329 322 306 294
165 182 174 123 112 112 151 163 181 189 165 195 219 198 179 184 212 232 218 216 236 241 252 262 279 10 2 335 347 354 343 329 331 330 354 353 341 333 320 323 323 324 315
177 151 121 117 149 195 171 211 194 162 200 212 215 130 167 190 221 257 41 164 230 233 254 295 34 12 355 352 4 351 330 329 323 7 6 343 326 324 327 322 311 308 309
146 151 152 178 185 186 198 191 202 218 228 230 146 154 165 211 262 165 233 15 315 23 220 76 30 25 359 23 4 325 325 314 13 3 338 319 314 310 308 304 300 297 295
179 181 188 220 166 145 178 219 204 222 236 243 168 161 187 227 47 60 101 161 331 259 68 40 36 19 22 29 319 317 354 35 5 332 315 314 311 307 300 298 307 305 305
188 181 189 182 175 168 205 219 238 193 332 314 319 156 193 229 101 91 194 22 292 335 52 12 51 338 4 330 333 350 69 33 329 332 335 303 294 299 306 298 291 289 294
188 177 198 177 160 206 214 217 221 218 180 211 234 356 108 121 63 274 335 256 267 54 320 16 24 315 340 314 27 65 88 72 324 309 291 297 293 293 283 280 285 294 292
210 188 204 197 179 185 240 194 240 236 211 191 130 144 110 79 339 321 324 281 238 284 5 281 343 347 326 83 97 124 173 249 318 307 298 289 284 280 282 283 286 292 304